Location: Unspecified
(41.5000°N, 0.0000°E)
Time: 10:17:56
(UTC+00:00)

Vanguard 3 - Pass Details

Date: 18 June 2019
Orbit: 507 x 3264 km, 33.4° (Epoch: 16 July)

Event Time Altitude Azimuth Distance (km) Brightness Sun altitude
Rises 12:35:19 0° 235° (SW) 5,557 11.6 70.5°
Reaches altitude 10° 12:40:03 10° 228° (SW) 4,056 11.2 70.2°
Maximum altitude 12:48:28 33° 170° (S) 1,876 9.9 69.4°
Drops below altitude 10° 12:53:44 10° 108° (ESE) 2,491 9.7 68.8°
Sets 12:55:57 0° 97° (E) 3,189 10.1 68.6°
